Location: ??????
(41.3164°N, 22.6615°E)
Time: 02:02:27
(UTC+00:00)

STRAND 1 - Pass Details

Date: 29 June 2022
Orbit: 766 x 781 km, 98.4° (Epoch: 17 August)

Event Time Altitude Azimuth Distance (km) Brightness Sun altitude
Rises 19:10:28 0° 353° (N) 3,270 ? -10.3°
Reaches altitude 10° 19:14:02 10° 328° (NNW) 2,334 ? -10.7°
Maximum altitude 19:16:21 13° 301° (WNW) 2,112 ? -11.0°
Drops below altitude 10° 19:18:39 10° 274° (W) 2,323 ? -11.3°
Sets 19:22:12 0° 248° (WSW) 3,242 ? -11.8°
